CW0121 Weather Reports


Display with metric or nautical units.
time (UTC)temp
F
wind
direction
speed
MPH
gust
MPH
rain 1hr
in
rain 24hr
in
rain mn
in
humidity
%
barometer
mb
20260508181003 68 20 10.0 23.0 0.00 0.00 0.00 28 1006.0
20260508180507 67 300 13.0 23.0 0.00 0.00 0.00 28 1006.1
20260508180100 68 27 11.0 23.0 0.00 0.00 0.00 28 1004.8
20260508180016 68 309 12.0 23.0 0.00 0.00 0.00 27 1006.2
20260508175508 69 311 13.0 23.0 0.00 0.00 0.00 28 1006.1
20260508175008 68 8 11.0 22.0 0.00 0.00 0.00 27 1006.1
20260508174612 69 295 11.0 22.0 0.00 0.00 0.00 28 1004.9
20260508174529 68 351 12.0 22.0 0.00 0.00 0.00 28 1005.9
20260508174006 67 338 9.0 22.0 0.00 0.00 0.00 28 1006.1
20260508173507 68 287 10.0 22.0 0.00 0.00 0.00 28 1006.1
20260508173057 68 300 9.0 19.0 0.00 0.00 0.00 28 1004.8
20260508173028 68 295 12.0 19.0 0.00 0.00 0.00 27 1006.2
20260508172507 69 335 4.0 18.0 0.00 0.00 0.00 29 1006.2
20260508172015 69 291 9.0 18.0 0.00 0.00 0.00 27 1006.3
20260508171557 69 273 4.0 14.0 0.00 0.00 0.00 30 1004.9
20260508171526 68 264 4.0 14.0 0.00 0.00 0.00 30 1006.3
20260508171014 69 309 7.0 14.0 0.00 0.00 0.00 26 1006.4
20260508170515 68 293 4.0 10.0 0.00 0.00 0.00 28 1006.5
20260508170054 67 288 4.0 11.0 0.00 0.00 0.00 29 1005.2
20260508170026 67 317 5.0 11.0 0.00 0.00 0.00 28 1006.5
20260508165505 67 346 8.0 11.0 0.00 0.00 0.00 28 1006.5
20260508165004 67 294 4.0 7.0 0.00 0.00 0.00 29 1006.5
20260508164550 67 13 2.0 6.0 0.00 0.00 0.00 30 1005.3
20260508164533 67 279 3.0 9.0 0.00 0.00 0.00 29 1006.5
20260508164006 67 323 3.0 9.0 0.00 0.00 0.00 30 1006.5
20260508163506 67 339 4.0 9.0 0.00 0.00 0.00 28 1006.5
20260508163046 66 313 3.0 9.0 0.00 0.00 0.00 29 1005.5
20260508163026 66 252 2.0 9.0 0.00 0.00 0.00 27 1006.5
20260508162509 66 318 3.0 7.0 0.00 0.00 0.00 29 1006.6
20260508162009 64 282 3.0 7.0 0.00 0.00 0.00 33 1006.7
20260508161546 63 330 1.0 5.0 0.00 0.00 0.00 35 1005.6
20260508161528 63 283 2.0 9.0 0.00 0.00 0.00 35 1006.9
20260508161011 62 260 2.0 10.0 0.00 0.00 0.00 36 1006.9
20260508160507 61 241 7.0 10.0 0.00 0.00 0.00 35 1006.9
20260508160039 61 257 6.0 10.0 0.00 0.00 0.00 35 1005.7
20260508160037 61 245 5.0 8.0 0.00 0.00 0.00 35 1007.0
20260508155513 60 259 4.0 10.0 0.00 0.00 0.00 35 1006.9
20260508155010 60 306 4.0 10.0 0.00 0.00 0.00 38 1007.0
20260508154542 59 231 5.0 10.0 0.00 0.00 0.00 38 1005.7
20260508154526 59 245 4.0 10.0 0.00 0.00 0.00 38 1006.9
20260508154005 58 245 6.0 11.0 0.00 0.00 0.00 36 1006.9
20260508153505 58 243 6.0 11.0 0.00 0.00 0.00 36 1006.9
20260508153032 58 243 8.0 11.0 0.00 0.00 0.00 38 1005.8
20260508153020 58 234 9.0 11.0 0.00 0.00 0.00 36 1006.9
20260508152506 57 257 6.0 10.0 0.00 0.00 0.00 38 1007.0
20260508152007 57 227 7.0 10.0 0.00 0.00 0.00 38 1007.0
20260508151532 56 233 7.0 11.0 0.00 0.00 0.00 38 1006.1
20260508151525 56 244 8.0 11.0 0.00 0.00 0.00 37 1007.2
20260508151008 56 245 5.0 11.0 0.00 0.00 0.00 39 1007.2
20260508150513 55 244 6.0 10.0 0.00 0.00 0.00 40 1007.3
20260508150028 55 249 7.0 10.0 0.00 0.00 0.00 39 1007.3
20260508145515 55 220 6.0 10.0 0.00 0.00 0.00 41 1007.3
20260508145016 54 221 6.0 10.0 0.00 0.00 0.00 41 1007.4
20260508144528 54 238 6.0 10.0 0.00 0.00 0.00 41 1007.4
20260508144521 54 248 6.0 10.0 0.00 0.00 0.00 42 1006.4
20260508144016 54 243 5.0 9.0 0.00 0.00 0.00 44 1007.4
20260508143516 53 226 6.0 9.0 0.00 0.00 0.00 43 1007.4
20260508143032 52 221 5.0 8.0 0.00 0.00 0.00 44 1007.4
20260508143017 52 221 5.0 8.0 0.00 0.00 0.00 44 1006.3
20260508142507 52 220 6.0 9.0 0.00 0.00 0.00 44 1007.3
20260508142007 52 234 6.0 9.0 0.00 0.00 0.00 43 1007.3
20260508141528 52 224 5.0 9.0 0.00 0.00 0.00 42 1007.3
20260508141520 52 224 5.0 9.0 0.00 0.00 0.00 42 1006.3
20260508141009 52 222 5.0 9.0 0.00 0.00 0.00 42 1007.3
20260508140506 52 210 5.0 9.0 0.00 0.00 0.00 42 1007.2
20260508140026 52 226 6.0 9.0 0.00 0.00 0.00 43 1007.2
20260508140021 52 212 5.0 9.0 0.00 0.00 0.00 44 1006.3
20260508135511 52 208 6.0 9.0 0.00 0.00 0.00 43 1007.2
20260508135010 52 215 6.0 9.0 0.00 0.00 0.00 44 1007.3
20260508134526 51 219 6.0 9.0 0.00 0.00 0.00 45 1007.4
20260508134513 51 214 5.0 9.0 0.00 0.00 0.00 46 1006.5
20260508134012 51 207 5.0 9.0 0.00 0.00 0.00 46 1007.5
20260508133511 51 195 7.0 9.0 0.00 0.00 0.00 45 1007.5
20260508133029 51 217 6.0 9.0 0.00 0.00 0.00 46 1007.6
20260508133009 51 209 6.0 9.0 0.00 0.00 0.00 46 1006.6
20260508132516 50 210 6.0 9.0 0.00 0.00 0.00 47 1007.7
20260508132013 49 206 6.0 8.0 0.00 0.00 0.00 48 1007.9
20260508131530 49 207 7.0 8.0 0.00 0.00 0.00 49 1007.9
20260508131507 49 201 6.0 8.0 0.00 0.00 0.00 50 1006.9
20260508131008 48 205 5.0 9.0 0.00 0.00 0.00 54 1007.9
20260508130506 47 204 6.0 9.0 0.00 0.00 0.00 53 1007.9
20260508130025 47 207 6.0 8.0 0.00 0.00 0.00 53 1007.7
20260508130002 47 207 6.0 8.0 0.00 0.00 0.00 54 1006.8
20260508125509 46 210 4.0 7.0 0.00 0.00 0.00 56 1007.7
20260508125008 45 196 4.0 7.0 0.00 0.00 0.00 57 1007.7
20260508124610 44 218 4.0 7.0 0.00 0.00 0.00 59 1006.7
20260508124526 44 206 4.0 7.0 0.00 0.00 0.00 58 1007.7
20260508124009 43 198 2.0 5.0 0.00 0.00 0.00 60 1007.7
20260508123508 43 162 2.0 5.0 0.00 0.00 0.00 61 1007.7
20260508123101 42 161 2.0 5.0 0.00 0.00 0.00 61 1006.8
20260508123030 42 162 2.0 5.0 0.00 0.00 0.00 61 1007.7
20260508122509 41 188 3.0 5.0 0.00 0.00 0.00 61 1007.8
20260508122009 40 158 2.0 4.0 0.00 0.00 0.00 62 1007.8
20260508121634 40 203 0.0 3.0 0.00 0.00 0.00 65 1006.9
20260508121525 40 219 1.0 3.0 0.00 0.00 0.00 64 1007.8
20260508121006 39 197 2.0 4.0 0.00 0.00 0.00 64 1007.7
20260508120506 39 230 2.0 4.0 0.00 0.00 0.00 63 1007.8
20260508120058 39 141 1.0 4.0 0.00 0.00 0.00 63 1006.9
20260508120019 39 179 2.0 4.0 0.00 0.00 0.00 62 1007.8
20260508115508 39 197 2.0 4.0 0.00 0.00 0.00 63 1007.7
20260508115007 39 198 1.0 4.0 0.00 0.00 0.00 64 1007.7
20260508114558 39 210 2.0 4.0 0.00 0.00 0.00 65 1006.9
20260508114524 38 205 2.0 4.0 0.00 0.00 0.00 65 1007.8
20260508114011 38 157 2.0 4.0 0.00 0.00 0.00 66 1007.7
20260508113504 38 165 2.0 4.0 0.00 0.00 0.00 67 1007.6
20260508113105 37 179 2.0 4.0 0.00 0.00 0.00 68 1006.8
20260508113008 37 139 2.0 3.0 0.00 0.00 0.00 67 1007.5
20260508112504 37 168 2.0 4.0 0.00 0.00 0.00 67 1007.6
20260508112005 37 161 2.0 6.0 0.00 0.00 0.00 66 1007.6
20260508111606 37 152 2.0 6.0 0.00 0.00 0.00 65 1006.7
20260508111513 37 153 3.0 6.0 0.00 0.00 0.00 65 1007.5
20260508111007 37 158 3.0 5.0 0.00 0.00 0.00 65 1007.7
20260508110508 37 195 1.0 3.0 0.00 0.00 0.00 65 1007.7
20260508110052 37 197 0.0 2.0 0.00 0.00 0.00 65 1007.0
20260508110019 37 203 1.0 3.0 0.00 0.00 0.00 64 1007.9
20260508105507 37 207 1.0 3.0 0.00 0.00 0.00 64 1008.0
20260508105009 37 146 1.0 2.0 0.00 0.00 0.00 64 1008.0
20260508104558 38 169 0.0 3.0 0.00 0.00 0.00 65 1007.2
20260508104520 38 202 0.0 4.0 0.00 0.00 0.00 64 1008.1
20260508104009 38 198 1.0 4.0 0.00 0.00 0.00 63 1007.9
20260508103506 38 163 2.0 4.0 0.00 0.00 0.00 63 1007.9
20260508103050 39 149 1.0 3.0 0.00 0.00 0.00 65 1007.1
20260508103032 39 152 1.0 3.0 0.00 0.00 0.00 64 1008.0
20260508102511 39 148 1.0 2.0 0.00 0.00 0.00 65 1008.0
20260508102002 39 138 1.0 2.0 0.00 0.00 0.00 65 1007.9
20260508101549 40 142 1.0 2.0 0.00 0.00 0.00 65 1007.1
20260508101515 40 145 1.0 2.0 0.00 0.00 0.00 65 1008.0
20260508101004 40 152 1.0 3.0 0.00 0.00 0.00 64 1008.0
20260508100503 40 146 1.0 4.0 0.00 0.00 0.00 66 1008.1
20260508100046 39 144 1.0 4.0 0.00 0.00 0.00 66 1007.3
20260508100014 39 176 2.0 4.0 0.00 0.00 0.00 66 1008.1
20260508095506 39 157 2.0 3.0 0.00 0.00 0.00 68 1008.1
20260508095010 39 167 2.0 3.0 0.00 0.00 0.00 69 1008.1
20260508094548 39 152 1.0 2.0 0.00 0.00 0.00 69 1007.3
20260508094518 39 148 2.0 2.0 0.00 0.00 0.00 69 1008.1
20260508094008 39 134 1.0 2.0 0.00 0.00 0.00 67 1008.1
20260508093512 39 142 1.0 3.0 0.00 0.00 0.00 66 1008.2
20260508093052 39 156 1.0 3.0 0.00 0.00 0.00 66 1007.4
20260508093022 39 169 2.0 3.0 0.00 0.00 0.00 66 1008.2
20260508092509 39 175 1.0 3.0 0.00 0.00 0.00 66 1008.3
20260508092009 39 165 2.0 3.0 0.00 0.00 0.00 65 1008.3
20260508091554 39 205 1.0 3.0 0.00 0.00 0.00 65 1007.3
20260508091527 39 146 1.0 3.0 0.00 0.00 0.00 65 1008.2
20260508091009 39 180 2.0 3.0 0.00 0.00 0.00 65 1008.2
20260508090502 39 168 1.0 4.0 0.00 0.00 0.00 65 1008.3
20260508090053 39 153 1.0 4.0 0.00 0.00 0.00 67 1007.3
20260508090011 39 152 1.0 4.0 0.00 0.00 0.00 66 1008.2
20260508085502 39 190 0.0 4.0 0.00 0.00 0.00 66 1008.2
20260508085002 39 165 2.0 4.0 0.00 0.00 0.00 65 1008.2
20260508084539 39 186 2.0 4.0 0.00 0.00 0.00 66 1007.3
20260508084514 39 169 2.0 4.0 0.00 0.00 0.00 65 1008.2
20260508084011 39 146 2.0 4.0 0.00 0.00 0.00 64 1008.2
20260508083507 39 185 2.0 4.0 0.00 0.00 0.00 64 1008.2
20260508083036 39 182 1.0 4.0 0.00 0.00 0.00 65 1007.5
20260508083019 38 195 1.0 4.0 0.00 0.00 0.00 64 1008.2
20260508082510 39 179 1.0 4.0 0.00 0.00 0.00 65 1008.3
20260508082008 38 179 2.0 4.0 0.00 0.00 0.00 65 1008.3
20260508081540 38 179 1.0 3.0 0.00 0.00 0.00 63 1007.5
20260508081525 38 168 1.0 3.0 0.00 0.00 0.00 62 1008.4
20260508081011 38 159 1.0 3.0 0.00 0.00 0.00 61 1008.4
20260508080506 38 162 2.0 3.0 0.00 0.00 0.00 61 1008.4
20260508080040 39 187 0.0 3.0 0.00 0.00 0.00 61 1007.5
20260508080029 39 205 0.0 3.0 0.00 0.00 0.00 60 1008.3
20260508075507 39 172 1.0 4.0 0.00 0.00 0.00 60 1008.4
20260508075009 39 169 1.0 4.0 0.00 0.00 0.00 60 1008.4
20260508074531 40 209 2.0 4.0 0.00 0.00 0.00 60 1007.6
20260508074508 40 169 2.0 4.0 0.00 0.00 0.00 59 1008.4
20260508074003 40 159 2.0 3.0 0.00 0.00 0.00 60 1008.4
20260508073505 40 162 1.0 2.0 0.00 0.00 0.00 60 1008.5
20260508073026 39 199 0.0 1.0 0.00 0.00 0.00 60 1007.6
20260508072510 39 136 1.0 2.0 0.00 0.00 0.00 59 1008.5
20260508072005 40 184 2.0 2.0 0.00 0.00 0.00 59 1008.4
20260508071526 40 151 0.0 2.0 0.00 0.00 0.00 61 1007.5
20260508071523 40 151 0.0 2.0 0.00 0.00 0.00 60 1008.4
20260508071013 40 191 0.0 3.0 0.00 0.00 0.00 59 1008.5
20260508070512 40 164 2.0 4.0 0.00 0.00 0.00 59 1008.6
20260508070029 41 169 1.0 4.0 0.00 0.00 0.00 57 1007.6
20260508070025 41 200 2.0 4.0 0.00 0.00 0.00 56 1008.6
20260508065511 42 196 1.0 2.0 0.00 0.00 0.00 55 1008.6
20260508065010 42 193 1.0 2.0 0.00 0.00 0.00 55 1008.6
20260508064536 42 150 1.0 2.0 0.00 0.00 0.00 54 1008.5
20260508064528 42 156 1.0 2.0 0.00 0.00 0.00 55 1007.5
20260508064007 43 185 0.0 2.0 0.00 0.00 0.00 53 1008.5
20260508063510 43 205 1.0 2.0 0.00 0.00 0.00 53 1008.6
20260508063020 43 183 1.0 2.0 0.00 0.00 0.00 53 1008.7
20260508063014 43 184 0.0 2.0 0.00 0.00 0.00 53 1007.6
20260508062508 44 169 1.0 2.0 0.00 0.00 0.00 53 1008.7
20260508062007 44 160 1.0 2.0 0.00 0.00 0.00 53 1008.6
20260508061519 44 153 1.0 2.0 0.00 0.00 0.00 52 1008.6
20260508061516 44 150 1.0 2.0 0.00 0.00 0.00 52 1007.5
20260508061010 44 141 1.0 2.0 0.00 0.00 0.00 51 1008.6
20260508060509 44 149 0.0 1.0 0.00 0.00 0.00 49 1008.6
20260508060023 44 148 0.0 1.0 0.00 0.00 0.00 49 1008.7
20260508060018 44 148 0.0 0.0 0.00 0.00 0.00 49 1007.6
20260508055510 44 148 0.0 1.0 0.00 0.00 0.00 49 1008.7
20260508055006 44 148 0.0 1.0 0.00 0.00 0.00 49 1008.8
20260508054522 45 148 0.0 0.0 0.00 0.00 0.00 48 1008.7
20260508054506 45 148 0.0 0.0 0.00 0.00 0.00 48 1007.7
20260508054009 45 148 0.0 0.0 0.00 0.00 0.00 47 1008.8
20260508053506 45 148 0.0 0.0 0.00 0.00 0.00 46 1008.7
20260508053028 45 148 0.0 1.0 0.00 0.00 0.00 46 1008.8
20260508053003 45 148 0.0 1.0 0.00 0.00 0.00 46 1007.7
20260508052514 45 148 0.0 1.0 0.00 0.00 0.00 46 1008.8
20260508052010 45 146 1.0 2.0 0.00 0.00 0.00 46 1008.8
20260508051559 46 148 0.0 2.0 0.00 0.00 0.00 47 1007.8
20260508051514 46 141 1.0 2.0 0.00 0.00 0.00 48 1008.8
20260508051003 46 149 0.0 2.0 0.00 0.00 0.00 46 1008.8
20260508050510 46 143 0.0 0.0 0.00 0.00 0.00 48 1008.8
20260508050058 46 145 0.0 0.0 0.00 0.00 0.00 51 1007.8
20260508050024 46 145 0.0 0.0 0.00 0.00 0.00 50 1008.8
20260508045509 47 133 0.0 0.0 0.00 0.00 0.00 46 1008.8
20260508045010 47 133 0.0 0.0 0.00 0.00 0.00 47 1008.8
20260508044601 47 140 0.0 0.0 0.00 0.00 0.00 49 1007.9
20260508044520 47 141 0.0 0.0 0.00 0.00 0.00 48 1008.8
20260508044010 47 150 0.0 0.0 0.00 0.00 0.00 46 1008.9
20260508043512 47 163 0.0 0.0 0.00 0.00 0.00 48 1008.9
20260508043056 47 165 0.0 0.0 0.00 0.00 0.00 47 1008.0
20260508043024 47 165 0.0 0.0 0.00 0.00 0.00 47 1009.0
20260508042511 47 165 0.0 0.0 0.00 0.00 0.00 46 1009.0
20260508042010 48 165 0.0 0.0 0.00 0.00 0.00 44 1009.0
20260508041555 48 165 0.0 1.0 0.00 0.00 0.00 45 1008.0
20260508041529 48 165 0.0 1.0 0.00 0.00 0.00 44 1009.0
20260508041011 48 166 0.0 1.0 0.00 0.00 0.00 44 1009.0
20260508040510 48 94 0.0 1.0 0.00 0.00 0.00 42 1009.0
20260508040058 48 94 0.0 1.0 0.00 0.00 0.00 43 1008.1
20260508040035 48 94 0.0 1.0 0.00 0.00 0.00 42 1009.0
20260508035507 47 79 0.0 1.0 0.00 0.00 0.00 44 1009.0
20260508035009 47 188 0.0 2.0 0.00 0.00 0.00 42 1009.0
20260508034554 47 188 0.0 2.0 0.00 0.00 0.00 42 1008.0
20260508034528 47 188 1.0 2.0 0.00 0.00 0.00 41 1009.0
20260508034012 48 193 1.0 2.0 0.00 0.00 0.00 42 1009.0
20260508033508 48 194 0.0 2.0 0.00 0.00 0.00 41 1009.0
20260508033113 49 203 0.0 2.0 0.00 0.00 0.00 40 1008.1
20260508033024 49 204 1.0 2.0 0.00 0.00 0.00 39 1009.1
20260508032510 49 198 1.0 1.0 0.00 0.00 0.00 38 1009.1
20260508032011 49 203 1.0 1.0 0.00 0.00 0.00 36 1009.1
20260508031553 49 200 0.0 1.0 0.00 0.00 0.00 36 1008.1
20260508031531 49 200 0.0 1.0 0.00 0.00 0.00 36 1009.1
20260508031012 50 200 0.0 0.0 0.00 0.00 0.00 35 1009.1
20260508030511 50 200 0.0 0.0 0.00 0.00 0.00 35 1009.1
20260508030107 50 200 0.0 0.0 0.00 0.00 0.00 36 1008.0
20260508030026 50 200 0.0 0.0 0.00 0.00 0.00 36 1009.1
20260508025508 50 200 0.0 1.0 0.00 0.00 0.00 35 1009.1
20260508025008 50 200 0.0 1.0 0.00 0.00 0.00 36 1009.1
20260508024618 50 200 0.0 1.0 0.00 0.00 0.00 36 1008.0
20260508024541 50 200 1.0 1.0 0.00 0.00 0.00 35 1009.0
20260508024006 50 199 0.0 1.0 0.00 0.00 0.00 34 1008.9
20260508023508 50 240 0.0 1.0 0.00 0.00 0.00 34 1008.9
20260508023051 50 243 0.0 1.0 0.00 0.00 0.00 34 1008.1
20260508023027 50 243 1.0 3.0 0.00 0.00 0.00 34 1009.0
20260508022506 51 235 1.0 3.0 0.00 0.00 0.00 34 1009.0
20260508022009 51 245 2.0 2.0 0.00 0.00 0.00 33 1009.0
20260508021552 51 238 0.0 2.0 0.00 0.00 0.00 32 1008.0
20260508021524 52 239 1.0 2.0 0.00 0.00 0.00 31 1008.9
20260508021015 53 239 1.0 2.0 0.00 0.00 0.00 29 1009.0
20260508020508 53 251 1.0 2.0 0.00 0.00 0.00 29 1009.0
20260508020106 53 248 1.0 2.0 0.00 0.00 0.00 30 1007.9
20260508020028 53 245 1.0 2.0 0.00 0.00 0.00 30 1008.9
20260508015509 53 249 1.0 2.0 0.00 0.00 0.00 30 1008.8
20260508015009 54 220 1.0 1.0 0.00 0.00 0.00 28 1008.8
20260508014557 55 250 0.0 1.0 0.00 0.00 0.00 27 1007.8
20260508014542 55 250 0.0 1.0 0.00 0.00 0.00 27 1008.8
20260508014010 56 272 0.0 1.0 0.00 0.00 0.00 26 1008.8
20260508013508 57 272 0.0 1.0 0.00 0.00 0.00 25 1008.8
20260508013101 57 288 0.0 1.0 0.00 0.00 0.00 26 1007.8
20260508013029 57 288 0.0 2.0 0.00 0.00 0.00 25 1008.8
20260508012508 57 289 0.0 2.0 0.00 0.00 0.00 25 1008.8
20260508012007 58 257 1.0 3.0 0.00 0.00 0.00 25 1008.8
20260508011549 58 288 0.0 3.0 0.00 0.00 0.00 25 1007.8
20260508011523 58 283 1.0 3.0 0.00 0.00 0.00 25 1008.8
20260508011010 59 305 0.0 3.0 0.00 0.00 0.00 24 1008.8
20260508010507 59 281 0.0 6.0 0.00 0.00 0.00 24 1008.8
20260508010051 60 263 0.0 6.0 0.00 0.00 0.00 23 1007.7
20260508010004 60 298 1.0 6.0 0.00 0.00 0.00 23 1008.8
20260508005505 60 316 1.0 4.0 0.00 0.00 0.00 23 1008.8
20260508005005 61 300 1.0 4.0 0.00 0.00 0.00 22 1008.7
20260508004548 61 258 1.0 4.0 0.00 0.00 0.00 23 1007.7
20260508004515 61 292 1.0 5.0 0.00 0.00 0.00 22 1008.7
20260508004006 62 293 1.0 10.0 0.00 0.00 0.00 22 1008.7
20260508003503 62 265 4.0 10.0 0.00 0.00 0.00 21 1008.7
20260508003045 62 303 3.0 6.0 0.00 0.00 0.00 21 1007.7
20260508003041 62 293 3.0 6.0 0.00 0.00 0.00 21 1008.7
20260508002505 62 252 2.0 9.0 0.00 0.00 0.00 21 1008.8
20260508002010 62 271 3.0 12.0 0.00 0.00 0.00 20 1008.8
20260508001551 63 261 5.0 12.0 0.00 0.00 0.00 19 1007.7
20260508001518 63 302 4.0 12.0 0.00 0.00 0.00 19 1008.8
20260508001006 63 260 3.0 8.0 0.00 0.00 0.00 20 1008.8
20260508000513 63 303 2.0 10.0 0.00 0.00 0.00 20 1008.7
20260508000043 63 266 2.0 10.0 0.00 0.00 0.00 21 1007.8
20260508000025 63 312 3.0 10.0 0.00 0.00 0.00 19 1008.8
20260507235507 63 302 4.0 10.0 0.00 0.00 0.00 19 1008.7
20260507235005 63 327 5.0 10.0 0.00 0.00 0.00 20 1008.8
20260507234542 63 279 4.0 10.0 0.00 0.00 0.00 19 1007.8
20260507234506 63 250 5.0 10.0 0.00 0.00 0.00 19 1008.8
20260507234002 64 240 7.0 10.0 0.00 0.00 0.00 18 1008.8
20260507233503 64 293 5.0 11.0 0.00 0.00 0.00 19 1008.9
20260507233041 64 286 4.0 14.0 0.00 0.00 0.00 21 1008.0
20260507233010 64 158 4.0 14.0 0.00 0.00 0.00 20 1008.9
20260507232504 64 295 5.0 14.0 0.00 0.00 0.00 19 1008.9
20260507232007 64 230 4.0 7.0 0.00 0.00 0.00 18 1008.9
20260507231539 64 307 2.0 7.0 0.00 0.00 0.00 19 1008.0
20260507231516 64 315 2.0 7.0 0.00 0.00 0.00 19 1009.0
20260507231009 64 286 2.0 9.0 0.00 0.00 0.00 21 1009.0
20260507230510 64 302 4.0 9.0 0.00 0.00 0.00 19 1009.0
20260507230039 64 268 3.0 9.0 0.00 0.00 0.00 22 1008.1
20260507230020 64 271 4.0 12.0 0.00 0.00 0.00 20 1008.9
20260507225512 64 223 2.0 12.0 0.00 0.00 0.00 22 1008.9
20260507225006 64 309 4.0 14.0 0.00 0.00 0.00 21 1009.0
20260507224537 63 312 6.0 14.0 0.00 0.00 0.00 20 1008.1
20260507224525 63 334 7.0 14.0 0.00 0.00 0.00 19 1009.0
20260507224003 63 309 3.0 8.0 0.00 0.00 0.00 20 1008.9
20260507223505 64 302 5.0 9.0 0.00 0.00 0.00 19 1008.9
20260507223035 64 318 3.0 12.0 0.00 0.00 0.00 22 1008.2
20260507223009 64 246 4.0 12.0 0.00 0.00 0.00 20 1009.0
20260507222506 64 295 7.0 12.0 0.00 0.00 0.00 22 1009.1
20260507222007 64 262 4.0 11.0 0.00 0.00 0.00 23 1009.1
20260507221532 63 295 3.0 11.0 0.00 0.00 0.00 21 1008.3
20260507221512 63 260 4.0 11.0 0.00 0.00 0.00 22 1009.1
20260507221009 63 262 1.0 12.0 0.00 0.00 0.00 24 1009.1
20260507220508 63 269 6.0 12.0 0.00 0.00 0.00 23 1009.2
20260507220029 63 271 6.0 13.0 0.00 0.00 0.00 22 1008.5
20260507220016 63 256 7.0 13.0 0.00 0.00 0.00 21 1009.3
20260507215512 63 317 8.0 13.0 0.00 0.00 0.00 22 1009.3
20260507215012 63 315 5.0 12.0 0.00 0.00 0.00 21 1009.4
20260507214528 62 244 7.0 12.0 0.00 0.00 0.00 21 1008.5
20260507214523 62 236 7.0 12.0 0.00 0.00 0.00 22 1009.3
20260507214012 63 274 4.0 10.0 0.00 0.00 0.00 21 1009.4
20260507213513 62 321 3.0 10.0 0.00 0.00 0.00 23 1009.5
20260507213034 61 205 4.0 16.0 0.00 0.00 0.00 23 1008.6
20260507213024 61 203 5.0 16.0 0.00 0.00 0.00 22 1009.5
20260507212504 62 243 9.0 16.0 0.00 0.00 0.00 21 1009.6
20260507212003 62 235 8.0 13.0 0.00 0.00 0.00 21 1009.6
20260507211532 62 226 4.0 9.0 0.00 0.00 0.00 23 1008.9
20260507211509 62 264 4.0 9.0 0.00 0.00 0.00 24 1009.7
20260507211006 62 255 3.0 13.0 0.00 0.00 0.00 24 1009.7
20260507210507 62 275 4.0 16.0 0.00 0.00 0.00 22 1009.7
20260507210022 62 263 6.0 16.0 0.00 0.00 0.00 25 1009.0
20260507210014 62 290 7.0 16.0 0.00 0.00 0.00 22 1009.7
20260507205507 62 247 8.0 12.0 0.00 0.00 0.00 24 1009.7
20260507205005 61 220 1.0 13.0 0.00 0.00 0.00 23 1009.8
20260507204521 61 311 3.0 13.0 0.00 0.00 0.00 24 1010.0
20260507204519 61 314 3.0 13.0 0.00 0.00 0.00 25 1009.2
20260507204010 62 264 5.0 11.0 0.00 0.00 0.00 23 1009.9
20260507203508 61 293 3.0 11.0 0.00 0.00 0.00 24 1010.0
20260507203024 61 305 2.0 19.0 0.00 0.00 0.00 24 1010.0
20260507203016 61 312 2.0 19.0 0.00 0.00 0.00 24 1009.4
20260507202507 61 244 5.0 19.0 0.00 0.00 0.00 24 1010.3
20260507202011 61 258 8.0 16.0 0.00 0.00 0.00 26 1010.2
20260507201531 60 268 5.0 16.0 0.00 0.00 0.00 26 1010.2
20260507201525 60 246 5.0 12.0 0.00 0.00 0.00 26 1009.7
20260507201003 60 245 7.0 16.0 0.00 0.00 0.00 25 1010.3
20260507200503 60 217 10.0 16.0 0.00 0.00 0.00 25 1010.3
20260507200015 59 228 4.0 14.0 0.00 0.00 0.00 27 1010.0
20260507200013 59 204 5.0 14.0 0.00 0.00 0.00 26 1010.5
20260507195504 60 210 10.0 14.0 0.00 0.00 0.00 25 1010.6
20260507195005 61 255 7.0 14.0 0.00 0.00 0.00 24 1010.5
20260507194516 60 224 3.0 9.0 0.00 0.00 0.00 26 1010.5
20260507194510 60 187 2.0 9.0 0.00 0.00 0.00 26 1010.1
20260507194007 59 311 2.0 17.0 0.00 0.00 0.00 29 1010.4
20260507193505 59 300 4.0 17.0 0.00 0.00 0.00 25 1010.6
20260507193023 59 354 4.0 7.0 0.00 0.00 0.00 29 1010.7
20260507193009 59 25 4.0 9.0 0.00 0.00 0.00 29 1010.1
20260507192509 59 90 3.0 17.0 0.00 0.00 0.00 27 1010.8
20260507192014 58 327 7.0 17.0 0.00 0.00 0.00 27 1010.8
20260507191523 59 82 1.0 11.0 0.00 0.00 0.00 27 1010.8
20260507191508 59 80 1.0 10.0 0.00 0.00 0.00 27 1010.1
20260507191007 58 281 5.0 11.0 0.00 0.00 0.00 29 1010.8
20260507190511 58 311 6.0 11.0 0.00 0.00 0.00 25 1010.9
20260507190031 59 317 3.0 11.0 0.00 0.00 0.00 29 1010.9
20260507190006 59 331 3.0 11.0 0.00 0.00 0.00 30 1010.3
20260507185503 58 306 6.0 11.0 0.00 0.00 0.00 26 1010.9
20260507185004 58 288 4.0 10.0 0.00 0.00 0.00 31 1010.9
20260507184516 58 276 5.0 7.0 0.00 0.00 0.00 26 1010.9
20260507184505 58 293 4.0 7.0 0.00 0.00 0.00 26 1010.4
20260507184005 58 304 5.0 9.0 0.00 0.00 0.00 25 1010.9
20260507183505 59 291 4.0 9.0 0.00 0.00 0.00 27 1011.0
20260507183022 58 297 3.0 9.0 0.00 0.00 0.00 27 1011.0
20260507183003 58 285 2.0 9.0 0.00 0.00 0.00 28 1010.5
20260507182508 58 271 4.0 10.0 0.00 0.00 0.00 28 1011.0
20260507182007 57 292 4.0 10.0 0.00 0.00 0.00 26 1011.1